リネ彗星

373P/Rinner (2019)

English version
Home page
Updated on March 24, 2019

---------------------------------------------------------------------

・ プロフィール

符号 373P/2018 R2
検出日 2018年9月14日、9月9日
検出光度 20.4等、21.1等
検出者 K. Sarneczky and R. Szakats (Konkoly Observatory), J. F. Soulier (Maisoncelles, France)

・ 写真集

・ 軌道要素

Epoch 2019 Apr. 27.0 TT = JDT 2458600.5
T 2019 Apr.  9.15302 TT                                 MPCW
q   2.3134669            (2000.0)            P               Q
n   0.13264993     Peri.  221.21342     -0.04043019     -0.98147201
a   3.8077173      Node   231.95762     +0.96771665     +0.00820712
e   0.3924268      Incl.   13.75754     +0.24877679     -0.19142972
P   7.43
From 587 observations 2011 Nov. 28-2018 Sept. 18, mean residual 0".6.

・ 光度変化

        m1 = 5.0 + 5 logΔ + 30.0 log r

---------------------------------------------------------------------

軌道要素はM.P.E.C. 2018-S50に掲載されたものです。
光度グラフはComet for Windowsで作成したものです。

---------------------------------------------------------------------

Copyright(C) Seiichi Yoshida (comet@aerith.net). All rights reserved.